Flag for U.S.A. Weather past 2 weeks in Charlotte, North Carolina, U.S.A.

Now
49 °F

Passing clouds.


Feels Like: 48 °F
Forecast: 35 / 54 °F
Wind: 3 mph from Southwest

Location: Charlotte / Douglas International Airport

Current Time: Dec 17, 2014 at 9:30:20 PM

Latest Report: Dec 17, 2014 at 8:52 PM


Visibility: 10 mi

Pressure: 30.09 "Hg

Humidity: 59%

Dew point: 35 °F

Location of CharlotteLocation

Historic Weather in Charlotte — Graph

°F

Charlotte temperature yesterday

Maximum temperature yesterday: 58 °F (at 3:52 PM)
Minimum temperature yesterday: 37 °F (at 12:52 AM)
Average temperature yesterday: 48 °F

Past Weeks' High & Low Weather Summary

 TemperatureHumidityPressure
High65 °F (Dec 13, 2:52 PM)97% (Dec 3, 5:52 AM)30.47 "Hg (Dec 3, 5:52 AM)
Low26 °F (Dec 11, 5:52 AM)11% (Dec 13, 2:52 PM)29.87 "Hg (Dec 16, 2:52 PM)
Average46 °F62%30.17 "Hg
* Reported Dec 2 7:52 PM — Dec 17 7:52 PM, Charlotte, Weather by CustomWeather, © 2014

Note: Actual official high and low records may vary slightly from our data, if they occured in-between our weather recording intervals... More about our weather records

Advertising

Charlotte weather history for previous 24 hours

 ConditionsComfort  
Time TempWeatherWind HumidityBarometerVisibility
7:52 PM
Dec 17
49 °FPassing clouds.3 mph57%30.09 "Hg10 mi
6:52 PM51 °FPassing clouds.No wind50%30.09 "Hg10 mi
5:52 PM52 °FClear.No wind49%30.08 "Hg10 mi
4:52 PM56 °FScattered clouds.5 mph42%30.07 "Hg10 mi
3:52 PM59 °FScattered clouds.7 mph36%30.05 "Hg10 mi
2:52 PM60 °FScattered clouds.6 mph36%30.05 "Hg10 mi
1:52 PM59 °FScattered clouds.5 mph38%30.07 "Hg10 mi
12:52 PM57 °FScattered clouds.No wind41%30.09 "Hg10 mi
11:52 AM56 °FScattered clouds.No wind46%30.12 "Hg10 mi
10:52 AM53 °FSunny.5 mph52%30.16 "Hg10 mi
9:52 AM49 °FPassing clouds.5 mph61%30.14 "Hg10 mi
8:52 AM46 °FPassing clouds.No wind68%30.12 "Hg10 mi
7:52 AM38 °FSunny.No wind83%30.12 "Hg10 mi
6:52 AM35 °FClear.3 mph85%30.11 "Hg10 mi
5:52 AM35 °FClear.No wind85%30.09 "Hg10 mi
4:52 AM39 °FClear.5 mph82%30.08 "Hg10 mi
3:52 AM38 °FClear.5 mph86%30.06 "Hg10 mi
2:52 AM40 °FClear.No wind80%30.07 "Hg10 mi
1:52 AM43 °FClear.3 mph74%30.05 "Hg10 mi
12:52 AM42 °FClear.No wind76%30.04 "Hg10 mi
11:52 PM
Dec 16
43 °FClear.No wind74%30.04 "Hg10 mi
10:52 PM43 °FClear.No wind74%30.04 "Hg10 mi
9:52 PM46 °FClear.6 mph77%30.03 "Hg10 mi
Weather by CustomWeather, © 2014

See weather overviewHow to use our weather pages